Flag for Germany Weather past 2 weeks in Wesseling, North Rhine-Westphalia, Germany

Now
91 °F

Overcast.


Feels Like: 92 °F
Forecast: 71 / 88 °F
Wind: 3 mph from Southwest

Location: Koeln / Bonn

Current Time: Jul 4, 2015 at 12:58:01 PM

Latest Report: Jul 4, 2015 at 12:00 PM


Visibility: 19 mi

Pressure: 30.06 "Hg

Humidity: 42%

Dew point: 65 °F

Location of WesselingLocation

Historic Weather in Wesseling — Graph

°F

Wesseling temperature yesterday

Maximum temperature yesterday: 92 °F (at 5:00 PM)
Minimum temperature yesterday: 68 °F (at 6:00 AM)
Average temperature yesterday: 80 °F

Past Weeks' High & Low Weather Summary

 TemperatureHumidityPressure
High97 °F (Jul 2, 5:00 PM)99% (Jun 22, 10:00 PM)30.24 "Hg (Jun 22, 10:00 PM)
Low49 °F (Jun 23, 1:00 AM)22% (Jun 30, 4:00 PM)29.71 "Hg (Jun 22, 9:00 PM)
Average66 °F69%30.08 "Hg
* Reported Jun 19 11:00 AM — Jul 4 11:00 AM, Wesseling, Weather by CustomWeather, © 2015

Note: Actual official high and low records may vary slightly from our data, if they occured in-between our weather recording intervals... More about our weather records

Advertising

Wesseling weather history for previous 24 hours

 ConditionsComfort  
Time TempWeatherWind HumidityBarometerVisibility
11:00 AM
Sat, Jul 4
89 °FPartly sunny.3 mph47%30.06 "Hg17 mi
10:00 AM84 °FOvercast.3 mph58%30.06 "Hg17 mi
9:00 AM83 °FOvercast.3 mph59%30.06 "Hg16 mi
8:00 AM77 °FOvercast.2 mph74%30.06 "Hg16 mi
7:00 AM76 °FOvercast.2 mph72%30.06 "Hg15 mi
5:00 AM72 °FPassing clouds.3 mph83%30.09 "Hg14 mi
4:00 AM71 °FPassing clouds.2 mph85%30.09 "Hg16 mi
3:00 AM73 °FPassing clouds.2 mph81%30.11 "Hg16 mi
2:00 AM73 °FPassing clouds.2 mph84%30.12 "Hg16 mi
1:00 AM79 °FPassing clouds.2 mph67%30.13 "Hg16 mi
12:00 AM80 °FPassing clouds.2 mph66%30.13 "Hg16 mi
11:00 PM
Fri, Jul 3
80 °FPassing clouds.2 mph66%30.14 "Hg16 mi
10:00 PM83 °FPassing clouds.3 mph62%30.15 "Hg17 mi
9:00 PM87 °FPassing clouds.2 mph53%30.14 "Hg19 mi
8:00 PM90 °FPassing clouds.3 mph45%30.14 "Hg19 mi
7:00 PM92 °FPassing clouds.2 mph44%30.14 "Hg14 mi
6:00 PM91 °FPassing clouds.2 mph41%30.15 "Hg14 mi
5:00 PM92 °FPassing clouds.1 mph42%30.17 "Hg14 mi
4:00 PM90 °FScattered clouds.2 mph47%30.18 "Hg14 mi
3:00 PM89 °FPassing clouds.2 mph49%30.19 "Hg14 mi
2:00 PM87 °FSunny.2 mph54%30.21 "Hg14 mi
1:00 PM84 °FSunny.2 mph55%30.22 "Hg14 mi
12:00 PM81 °FSunny.1 mph61%30.23 "Hg14 mi
Weather by CustomWeather, © 2015

See weather overviewHow to use our weather pages